Date,TemperatureHighF,TemperatureAvgF,TemperatureLowF,DewpointHighF,DewpointAvgF,DewpointLowF,HumidityHigh,HumidityAvg,HumidityLow,PressureMaxIn,PressureMinIn,WindSpeedMaxMPH,WindSpeedAvgMPH,GustSpeedMaxMPH,PrecipitationSumIn
2013-1-1,27.4,22.2,17.1,19.7,14.0,10.4,80,71,59,30.18,30.04,17,7,19,0.00
2013-1-2,25.9,22.6,18.4,21.4,17.3,12.7,83,80,76,30.20,30.09,18,6,18,0.00
2013-1-3,29.3,24.6,18.9,25.7,19.7,12.0,87,81,74,30.17,30.06,21,9,21,0.00
2013-1-4,32.1,28.4,25.1,24.3,22.5,20.6,84,78,71,30.19,30.00,30,13,30,0.00
2013-1-5,36.5,28.0,17.8,30.6,23.8,15.4,94,85,70,30.29,30.01,17,7,17,0.00
2013-1-6,35.7,34.0,31.7,33.3,30.5,27.1,93,87,78,30.27,29.90,20,10,20,0.07
2013-1-7,38.1,32.1,29.0,27.3,25.1,22.8,86,75,60,30.36,30.13,26,10,26,0.00
2013-1-8,39.5,32.2,27.4,28.8,25.6,22.7,84,76,64,30.25,30.14,14,7,15,0.00
2013-1-9,45.9,39.3,30.7,34.6,30.2,25.6,85,70,49,30.42,30.00,32,15,32,0.01
2013-1-10,42.2,33.2,23.0,33.3,27.6,21.3,94,80,61,30.59,30.17,17,5,17,0.09
2013-1-11,54.9,45.0,35.9,51.3,42.5,32.8,96,91,81,30.16,29.74,22,10,22,0.53
2013-1-12,59.4,51.6,46.8,50.2,45.7,36.8,92,81,65,29.92,29.79,20,8,20,0.00
2013-1-13,46.9,37.1,28.3,39.4,35.1,25.5,96,93,67,30.04,29.77,21,6,21,0.46
2013-1-14,28.3,22.2,15.3,25.9,17.8,13.1,92,83,72,30.46,30.04,26,8,26,0.00
2013-1-15,29.9,20.8,11.7,23.4,16.2,9.2,94,83,64,30.47,30.19,9,2,9,0.06
2013-1-16,36.2,26.9,15.2,29.6,19.6,12.7,93,76,47,30.18,29.81,29,9,29,0.00
2013-1-17,33.9,27.9,17.2,29.6,20.3,6.6,87,73,56,30.33,29.96,31,11,31,0.00
2013-1-18,36.3,24.8,11.3,24.1,16.7,8.4,91,72,52,30.45,29.94,34,12,35,0.00
2013-1-19,46.3,41.8,36.0,36.1,31.5,24.1,76,67,60,29.94,29.52,29,16,29,0.00
2013-1-20,43.5,21.5,13.5,35.8,11.0,4.0,77,64,46,30.19,29.51,45,19,45,0.00
2013-1-21,16.2,12.4,4.7,11.9,4.7,-3.4,86,71,59,30.17,29.99,26,10,26,0.00
2013-1-22,10.1,4.7,-1.1,2.6,-3.4,-9.2,80,69,55,30.33,30.14,25,10,25,0.00
2013-1-23,17.7,10.3,2.0,12.5,5.1,-2.9,88,79,66,30.33,30.11,17,6,17,0.00
2013-1-24,16.8,10.5,4.9,11.9,4.6,0.3,89,77,60,30.64,30.17,15,4,15,0.00
2013-1-25,22.2,17.2,11.0,16.5,12.5,4.4,88,81,73,30.55,30.05,17,6,17,0.00
2013-1-26,28.2,21.3,13.1,18.7,16.1,10.2,89,81,62,30.47,30.07,16,6,16,0.04
2013-1-27,29.2,22.2,11.2,27.1,16.6,8.3,92,80,60,30.50,30.13,21,7,21,0.00
2013-1-28,44.9,37.3,29.2,44.1,35.9,27.2,97,95,91,30.17,29.85,16,10,16,0.37
2013-1-29,58.4,51.7,36.7,56.0,50.2,35.7,98,95,89,29.87,29.27,14,8,29,0.40
2013-1-30,51.6,46.2,32.4,51.0,44.6,28.4,98,94,85,29.33,29.08,31,8,31,0.56
2013-1-31,32.0,21.7,16.0,28.6,16.2,11.9,90,79,67,29.90,29.22,43,18,43,0.00
2013-2-1,18.5,15.0,10.7,12.5,9.3,3.6,88,78,64,30.28,29.90,23,12,23,0.00
2013-2-2,21.0,14.7,3.1,16.9,10.1,-0.1,88,82,75,30.23,30.01,21,8,21,0.00
2013-2-3,20.7,11.3,-0.5,15.8,6.6,-3.7,90,81,70,30.05,29.89,22,6,22,0.00
2013-2-4,23.4,18.1,11.9,16.9,13.4,6.6,88,82,75,30.06,29.92,9,3,9,0.01
2013-2-5,27.8,19.8,5.4,26.3,15.9,2.4,94,85,66,29.99,29.82,20,6,20,0.00
2013-2-6,32.1,23.1,9.7,21.8,15.8,7.1,92,74,55,30.31,29.99,18,4,18,0.01
2013-2-7,37.7,30.7,25.6,28.4,23.4,18.0,90,74,66,30.30,29.91,18,7,18,0.01
2013-2-8,29.4,25.0,16.5,28.0,21.9,13.7,95,88,73,30.38,29.84,28,12,28,0.00
2013-2-9,33.5,18.8,-0.5,21.5,11.9,-3.9,93,76,46,30.49,30.30,14,4,14,0.18
2013-2-10,44.7,33.8,21.3,42.8,28.4,17.5,94,81,59,30.31,29.54,21,10,29,0.05
2013-2-11,43.9,36.3,32.4,41.7,29.7,26.9,92,77,67,29.84,29.53,37,21,37,0.02
2013-2-12,32.4,30.3,27.9,27.1,24.3,22.1,81,78,74,30.04,29.84,28,12,28,0.00
2013-2-13,39.8,30.7,27.0,28.5,24.7,22.3,88,79,63,29.94,29.74,17,6,17,0.00
2013-2-14,40.9,34.6,29.5,35.1,30.9,26.5,92,86,78,29.84,29.66,32,11,32,0.01
2013-2-15,32.9,26.3,21.6,27.7,18.1,13.4,83,71,59,30.14,29.83,27,11,27,0.00
2013-2-16,25.3,20.2,15.6,19.9,14.5,8.9,89,79,62,30.12,30.00,16,5,18,0.00
2013-2-17,23.2,15.2,6.4,14.8,7.3,2.6,88,72,53,30.24,30.09,18,6,18,0.00
2013-2-18,47.4,31.0,13.9,37.6,21.4,6.8,74,68,57,30.24,29.58,26,12,26,0.01
2013-2-19,47.8,29.7,18.9,40.7,24.8,12.2,92,82,69,29.91,29.38,31,20,31,0.18
2013-2-20,23.2,20.0,16.4,16.3,12.8,9.4,82,73,65,30.27,29.91,28,16,28,0.00
2013-2-21,24.1,20.4,17.7,19.6,14.5,12.0,90,78,67,30.42,30.26,26,8,26,0.00
2013-2-22,33.8,27.4,22.2,32.0,24.9,18.5,95,90,83,30.31,29.89,20,9,20,0.00
2013-2-23,33.8,30.3,24.9,31.7,25.0,20.8,92,81,67,29.92,29.87,26,10,26,0.01
2013-2-24,37.3,27.9,19.4,28.8,23.5,17.0,92,84,64,30.17,29.90,17,6,17,0.04
2013-2-25,42.7,29.7,16.6,27.6,22.2,14.4,93,75,49,30.26,30.12,10,2,10,0.01
2013-2-26,36.6,31.4,26.5,32.4,27.2,21.7,96,84,72,30.15,29.55,22,10,22,0.15
2013-2-27,36.5,34.6,33.4,35.1,33.3,32.4,96,95,91,29.57,29.48,14,4,14,0.30
2013-2-28,34.5,32.6,29.0,32.6,30.0,24.5,97,90,81,29.99,29.55,25,12,25,0.09
2013-3-1,29.0,25.8,24.1,25.3,21.6,19.5,87,84,81,30.14,29.99,23,12,23,0.00
2013-3-2,25.6,24.0,20.9,20.8,19.7,18.0,90,83,76,30.12,30.08,17,8,17,0.00
2013-3-3,27.1,22.1,14.6,18.7,16.2,11.7,89,78,68,30.09,30.03,18,7,18,0.00
2013-3-4,33.6,21.6,10.3,18.7,14.3,7.7,91,75,48,30.19,30.08,10,3,10,0.00
2013-3-5,35.9,26.1,13.8,26.3,20.8,11.4,91,81,66,30.17,29.89,20,9,20,0.00
2013-3-6,38.2,32.0,26.2,30.6,27.5,23.0,93,84,71,30.23,29.92,17,6,17,0.00
2013-3-7,34.0,30.6,21.6,30.5,26.2,18.9,94,84,65,30.42,30.21,14,4,14,0.02
2013-3-8,44.4,29.5,16.5,30.4,23.1,14.3,94,78,56,30.53,30.42,10,2,10,0.00
2013-3-9,45.6,36.5,26.5,33.8,29.3,24.2,92,76,57,30.43,30.03,17,7,17,0.00
2013-3-10,59.9,51.0,39.9,45.4,39.0,32.7,76,64,50,30.03,29.77,26,9,26,0.00
2013-3-11,57.5,50.1,38.0,48.8,44.3,33.6,95,82,53,29.79,29.43,26,12,26,0.32
2013-3-12,38.1,34.4,30.6,34.0,29.6,24.9,92,83,69,29.91,29.64,21,12,21,0.01
2013-3-13,33.6,28.6,23.5,27.8,20.7,14.9,93,73,49,30.20,29.87,31,14,31,0.01
2013-3-14,39.7,30.4,21.8,23.3,19.6,15.0,81,65,46,30.28,30.08,20,8,20,0.00
2013-3-15,39.0,34.8,31.2,33.5,29.7,20.3,95,82,62,30.08,29.86,18,7,18,0.01
2013-3-16,33.6,28.4,25.3,32.3,24.9,20.8,95,87,71,30.05,29.81,16,6,16,0.01
2013-3-17,30.7,25.3,19.0,24.2,16.1,10.9,88,69,47,30.31,30.04,20,8,20,0.02
2013-3-18,34.7,28.7,18.3,33.1,24.6,13.2,95,84,75,30.23,29.57,24,10,24,0.07
2013-3-19,34.6,26.4,22.8,31.6,21.1,16.1,89,80,68,29.94,29.60,30,16,30,0.00
2013-3-20,27.7,23.6,17.1,18.2,15.2,11.7,80,70,59,29.96,29.90,24,12,25,0.00
2013-3-21,30.7,24.5,16.2,26.1,19.5,11.4,89,81,71,29.95,29.87,22,10,22,0.00
2013-3-22,37.6,29.8,25.2,26.2,21.7,18.3,84,72,60,30.04,29.94,20,9,20,0.02
2013-3-23,35.3,30.8,24.4,26.2,24.3,21.0,89,77,67,30.13,30.04,10,4,10,0.00
2013-3-24,37.9,28.8,20.3,29.2,23.6,18.1,94,81,59,30.08,29.70,24,7,24,0.00
2013-3-25,38.4,34.6,30.8,30.0,27.2,24.8,79,74,65,29.93,29.63,24,10,24,0.00
2013-3-26,42.4,36.4,32.3,33.7,30.3,27.4,87,79,65,30.12,29.93,23,7,23,0.00
2013-3-27,45.4,37.7,30.0,31.8,28.0,25.5,85,69,51,30.20,30.12,26,12,26,0.00
2013-3-28,51.1,39.0,29.2,32.0,27.0,23.4,80,64,41,30.28,30.20,21,8,21,0.00
2013-3-29,51.9,41.4,27.2,28.8,24.9,22.0,82,54,33,30.29,30.20,14,5,14,0.00
2013-3-30,55.6,41.9,24.6,31.3,24.3,16.9,91,55,23,30.22,29.91,21,6,21,0.00
2013-3-31,56.4,46.6,39.9,42.2,35.9,30.8,87,67,47,29.91,29.60,26,10,26,0.00
2013-4-1,40.1,31.2,26.0,35.0,18.5,12.9,89,60,42,30.10,29.68,30,13,30,0.00
2013-4-2,40.9,30.7,22.2,20.0,16.1,11.8,85,57,35,30.27,30.10,26,10,26,0.00
2013-4-3,41.6,30.5,20.9,18.8,15.9,11.7,81,57,35,30.45,30.26,20,6,23,0.00
2013-4-4,56.4,42.3,29.3,24.1,19.0,14.9,65,42,22,30.37,29.94,21,8,23,0.00
2013-4-5,46.1,39.7,31.1,32.6,24.1,18.8,84,55,35,30.21,29.94,20,7,21,0.00
2013-4-6,49.4,39.5,28.4,25.4,22.5,17.7,79,53,34,30.25,29.75,26,11,26,0.00
2013-4-7,57.3,47.1,32.1,47.3,36.2,25.0,89,68,37,30.04,29.57,32,14,32,0.00
2013-4-8,61.2,43.2,28.8,53.9,39.3,26.8,95,87,66,30.04,29.69,32,9,32,0.23
2013-4-9,51.2,44.0,40.0,45.0,42.1,38.7,96,93,77,30.09,29.89,18,6,18,0.85
2013-4-10,41.8,39.8,37.2,40.7,38.4,34.3,96,95,89,30.08,29.85,26,8,26,0.48
2013-4-11,37.8,36.4,35.3,35.8,34.7,33.7,95,93,89,30.02,29.67,25,12,26,0.58
2013-4-12,43.1,37.9,33.9,38.9,35.5,32.9,96,91,76,29.75,29.55,24,8,24,0.29
2013-4-13,41.5,38.4,35.9,38.4,32.0,26.4,95,78,60,29.99,29.75,28,13,28,0.04
2013-4-14,48.5,39.7,31.2,38.0,32.3,28.0,90,75,61,30.12,29.93,16,6,16,0.01
2013-4-15,68.3,56.1,42.0,55.7,46.3,34.8,90,70,57,29.94,29.84,28,12,28,0.02
2013-4-16,60.7,51.7,44.8,55.5,42.9,35.1,94,74,46,30.23,29.83,21,9,21,0.02
2013-4-17,58.9,46.4,37.8,44.1,36.9,31.9,94,71,46,30.36,29.97,30,9,30,0.44
2013-4-18,73.0,56.0,44.6,64.0,52.9,42.1,95,89,74,30.02,29.54,31,11,31,0.47
2013-4-19,59.2,44.4,32.7,57.5,39.5,30.0,96,83,65,29.72,29.30,35,17,35,0.77
2013-4-20,37.4,33.1,27.3,31.5,23.5,17.5,93,68,56,30.46,29.72,32,13,32,0.01
2013-4-21,49.6,36.6,22.5,30.4,25.6,20.8,95,67,38,30.65,30.46,16,5,16,0.00
2013-4-22,62.2,48.2,33.7,36.2,31.3,25.9,88,56,28,30.48,30.19,15,6,15,0.00
2013-4-23,68.0,56.0,44.8,53.5,42.6,34.4,93,63,43,30.19,29.81,38,11,38,0.28
2013-4-24,49.4,39.1,34.6,47.5,35.4,28.9,95,87,63,30.12,29.76,18,10,20,0.38
2013-4-25,51.2,42.4,37.0,40.7,32.2,28.0,90,68,44,30.34,30.08,26,11,26,0.05
2013-4-26,60.4,47.4,30.2,38.8,32.9,28.1,93,60,37,30.46,30.31,21,8,21,0.00
2013-4-27,70.7,56.8,42.9,45.5,37.8,31.3,79,53,25,30.34,30.09,18,7,18,0.00
2013-4-28,62.4,54.5,50.2,52.9,45.6,34.6,96,74,49,30.09,29.83,13,4,13,0.14
2013-4-29,70.1,59.8,52.7,56.4,53.4,51.9,98,81,55,29.92,29.82,12,4,12,0.01
2013-4-30,72.5,62.9,55.3,58.6,55.0,52.1,93,76,56,30.05,29.90,25,10,25,0.17
2013-5-1,81.4,69.5,57.4,60.7,55.3,52.7,86,63,40,30.20,30.03,20,8,20,0.00
2013-5-2,78.2,67.8,57.4,57.3,51.6,46.4,76,58,38,30.22,30.10,20,8,20,0.00
2013-5-3,76.9,67.4,57.3,57.7,45.9,34.9,59,47,26,30.11,30.03,22,8,22,0.00
2013-5-4,71.9,63.8,52.7,50.5,43.3,35.7,68,49,28,30.10,30.04,18,8,18,0.00
2013-5-5,73.0,61.0,45.9,49.8,40.1,29.1,82,50,22,30.09,30.01,22,6,22,0.00
2013-5-6,76.6,60.0,40.5,51.8,43.7,38.0,95,59,34,30.06,29.95,13,4,13,0.00
2013-5-7,77.0,62.8,45.1,56.6,49.0,41.3,89,63,39,30.05,29.97,16,4,16,0.00
2013-5-8,79.8,65.0,48.2,53.5,49.2,43.7,96,62,32,30.01,29.90,15,4,15,0.00
2013-5-9,80.2,66.4,50.0,57.8,51.8,47.3,96,64,33,29.95,29.86,15,2,15,0.00
2013-5-10,68.5,51.2,41.2,58.0,48.3,39.1,96,90,59,29.88,29.73,22,8,22,0.32
2013-5-11,62.3,46.6,38.1,48.4,41.7,33.6,96,84,53,29.88,29.70,27,10,27,0.03
2013-5-12,46.7,40.1,32.2,34.9,31.1,26.0,86,71,56,30.09,29.85,30,13,30,0.00
2013-5-13,53.5,41.5,28.8,32.9,27.6,24.4,88,60,34,30.18,30.09,20,6,20,0.00
2013-5-14,76.5,56.0,43.3,54.4,40.2,31.3,73,56,41,30.10,29.69,20,7,20,0.00
2013-5-15,78.7,69.0,54.9,59.1,51.4,44.3,82,56,35,29.77,29.54,28,10,28,0.01
2013-5-16,79.2,63.2,46.7,51.6,46.1,40.3,93,58,29,30.03,29.76,15,5,15,0.00
2013-5-17,67.4,57.3,43.5,49.2,44.2,39.4,87,63,46,30.15,30.03,12,5,12,0.00
2013-5-18,79.6,65.5,53.2,55.4,47.7,43.7,79,55,32,30.15,30.02,15,5,15,0.00
2013-5-19,86.3,71.2,51.9,64.8,56.0,46.1,87,61,43,30.03,29.84,13,3,13,0.00
2013-5-20,89.1,73.7,64.2,72.1,64.9,59.8,96,76,45,29.90,29.71,28,8,28,0.29
2013-5-21,83.2,73.9,64.0,66.9,64.0,59.7,95,73,50,29.77,29.67,23,7,23,0.10
2013-5-22,79.0,68.6,62.5,66.2,63.2,60.4,93,84,57,29.70,29.57,27,8,27,0.15
2013-5-23,62.5,50.8,42.5,60.5,49.1,40.6,96,94,92,30.16,29.64,24,9,24,0.30
2013-5-24,55.3,45.3,38.5,43.2,37.9,33.8,96,77,51,30.38,30.16,17,7,17,0.00
2013-5-25,62.1,49.4,34.1,43.7,38.3,32.8,97,69,40,30.42,30.29,14,4,14,0.00
2013-5-26,67.0,52.7,35.4,45.8,38.7,33.8,97,64,35,30.36,30.24,14,3,14,0.00
2013-5-27,67.5,52.8,38.9,49.8,42.1,30.1,93,71,35,30.26,30.01,18,4,18,0.01
2013-5-28,73.4,61.0,51.8,69.6,59.4,49.8,98,95,87,30.01,29.76,54,4,13,1.24
2013-5-29,80.7,72.4,63.7,68.5,65.8,62.1,96,81,62,29.95,29.73,25,7,25,0.37
2013-5-30,84.1,74.6,67.5,75.7,67.5,61.9,92,79,60,30.01,29.91,29,7,29,0.21
2013-5-31,81.4,74.1,69.1,71.1,67.2,65.5,93,79,65,29.95,29.80,25,10,25,0.46
2013-6-1,79.1,70.8,64.7,67.9,64.8,62.3,95,82,63,29.83,29.64,22,8,22,0.15
2013-6-2,68.2,62.0,50.8,63.6,55.5,42.4,89,79,71,29.98,29.60,23,11,23,0.00
2013-6-3,66.3,53.8,38.8,49.3,42.8,36.8,95,69,45,30.08,29.98,13,5,13,0.00
2013-6-4,69.8,57.3,44.3,51.7,46.1,43.0,97,69,40,30.20,30.08,12,2,12,0.00
2013-6-5,70.3,59.6,49.3,53.7,46.7,41.4,86,64,42,30.18,29.99,12,3,12,0.00
2013-6-6,65.8,59.2,55.2,56.5,50.4,46.0,82,73,64,30.02,29.86,15,6,15,0.01
2013-6-7,62.2,55.8,50.0,54.5,51.3,48.1,94,85,74,29.92,29.87,12,5,12,0.00
2013-6-8,72.2,61.6,51.5,57.9,53.7,49.4,95,77,51,30.06,29.90,7,1,7,0.00
2013-6-9,75.3,66.2,55.2,62.3,56.0,52.2,92,71,56,30.10,29.93,12,4,12,0.00
2013-6-10,74.7,65.7,59.5,68.4,62.2,51.9,97,89,60,29.94,29.71,9,2,9,0.86
2013-6-11,78.8,69.6,62.0,68.1,64.4,60.8,98,85,65,29.86,29.75,17,5,17,0.00
2013-6-12,76.2,68.1,58.4,68.6,64.3,57.3,98,88,72,29.90,29.63,13,2,13,0.04
2013-6-13,75.3,68.3,61.7,65.8,60.2,55.5,97,77,52,29.91,29.57,21,9,21,0.48
2013-6-14,73.6,64.4,55.1,58.1,53.7,48.3,91,70,42,30.07,29.91,16,6,16,0.01
2013-6-15,76.3,67.2,55.0,64.6,58.9,50.6,90,76,56,30.06,29.88,18,5,18,0.00
2013-6-16,80.4,70.8,64.5,68.1,62.3,55.2,95,76,50,29.88,29.72,20,9,20,0.31
2013-6-17,83.4,68.9,58.6,65.0,59.4,55.9,93,73,47,29.93,29.78,21,4,28,0.01
2013-6-18,69.0,60.9,52.6,58.5,50.0,42.1,94,70,41,30.08,29.88,20,6,20,0.01
2013-6-19,75.4,60.3,42.0,55.8,47.7,40.5,97,67,40,30.18,30.07,9,2,9,0.00
2013-6-20,82.0,71.8,53.9,61.3,55.0,50.1,88,58,38,30.19,30.12,12,4,12,0.00
2013-6-21,84.0,75.2,59.6,68.4,62.0,53.4,84,65,50,30.18,30.01,16,6,16,0.00
2013-6-22,88.3,78.3,70.7,73.4,67.3,59.3,88,70,52,30.05,29.93,16,6,16,0.00
2013-6-23,89.5,79.9,70.8,71.6,69.0,66.5,94,72,48,30.00,29.92,20,7,20,0.00
2013-6-24,87.0,77.0,68.1,72.1,68.6,65.5,96,77,55,30.00,29.87,36,7,36,0.99
2013-6-25,79.7,71.5,66.8,71.6,67.7,64.5,97,88,71,29.93,29.79,14,6,14,0.18
2013-6-26,84.3,74.4,64.8,72.4,68.2,63.3,97,82,62,29.84,29.70,18,4,18,0.00
2013-6-27,83.0,71.3,65.1,75.2,68.1,63.8,97,90,69,29.73,29.60,18,2,18,0.89
2013-6-28,76.4,67.7,64.6,67.6,64.9,61.9,98,91,71,29.62,29.50,24,4,24,0.39
2013-6-29,71.9,66.8,62.4,63.5,61.5,58.3,98,84,69,29.72,29.52,14,4,14,0.00
2013-6-30,78.2,68.5,60.3,64.5,59.3,46.8,94,74,55,29.95,29.72,15,4,15,0.00
2013-7-1,69.0,62.0,54.4,58.8,53.5,46.8,88,74,57,30.08,29.95,16,4,16,0.04
2013-7-2,74.9,64.2,57.0,64.3,57.9,52.3,90,80,66,30.06,30.01,12,4,12,0.00
2013-7-3,82.6,73.8,58.0,70.9,65.5,56.6,96,76,57,30.08,30.01,13,4,13,0.00
2013-7-4,80.6,72.7,65.4,67.7,64.3,58.8,96,77,51,30.09,30.03,18,5,18,0.00
2013-7-5,83.8,73.9,64.2,67.7,64.0,61.1,93,73,49,30.08,30.00,9,2,9,0.00
2013-7-6,84.8,75.4,66.6,72.1,68.5,64.7,96,80,58,30.07,29.95,15,4,15,0.02
2013-7-7,81.6,73.6,69.0,72.9,69.3,67.6,96,87,66,30.00,29.92,12,4,12,0.48
2013-7-8,82.1,74.7,69.9,75.3,70.4,66.7,94,87,77,29.99,29.93,18,5,18,0.06
2013-7-9,87.6,75.2,68.0,75.0,70.5,66.8,98,87,60,29.95,29.82,24,4,24,0.30
2013-7-10,86.3,77.4,65.2,74.6,69.2,56.8,96,77,56,29.91,29.71,22,9,22,0.00
2013-7-11,76.0,66.8,55.4,60.0,57.0,52.2,97,73,46,30.06,29.91,16,4,16,0.00
2013-7-12,81.8,67.1,51.8,65.2,58.8,50.4,98,77,49,30.16,30.06,9,2,9,0.00
2013-7-13,84.3,71.7,56.7,65.8,60.5,55.1,98,71,41,30.19,30.13,9,2,9,0.00
2013-7-14,89.8,76.9,62.2,73.5,68.0,61.0,98,76,53,30.23,30.18,9,1,9,0.00
2013-7-15,90.0,78.8,67.9,78.1,72.8,66.5,98,83,61,30.26,30.18,12,2,12,0.02
2013-7-16,91.9,81.8,73.1,79.7,74.7,71.9,97,81,59,30.27,30.18,12,3,12,0.01
2013-7-17,93.1,83.1,73.7,79.0,74.6,70.5,91,76,57,30.24,30.09,16,4,16,0.00
2013-7-18,93.3,83.3,72.8,78.5,74.0,70.5,94,75,54,30.12,29.89,16,6,16,0.00
2013-7-19,92.2,83.8,77.4,76.1,73.2,64.9,87,71,52,29.90,29.65,28,11,28,0.00
2013-7-20,84.5,76.0,67.2,72.1,65.3,56.2,95,72,42,29.91,29.66,17,4,17,0.14
2013-7-21,82.0,70.3,58.9,64.2,59.4,54.9,89,70,48,29.99,29.90,8,2,8,0.00
2013-7-22,83.1,73.1,64.7,70.8,65.0,59.3,91,76,57,29.94,29.72,13,4,13,0.00
2013-7-23,78.6,70.0,61.0,73.4,64.1,50.8,96,82,62,29.86,29.62,23,9,23,0.84
2013-7-24,71.3,62.2,52.9,56.1,51.6,47.5,91,69,52,30.04,29.86,18,5,18,0.00
2013-7-25,77.0,62.9,49.0,58.0,53.0,47.9,97,74,44,30.11,30.03,8,2,8,0.00
2013-7-26,78.6,68.7,59.2,63.6,59.0,55.4,89,73,52,30.08,29.89,14,6,14,0.04
2013-7-27,76.5,65.6,55.7,67.5,61.7,50.0,95,87,66,29.88,29.70,14,5,14,0.71
2013-7-28,66.8,58.0,51.3,57.2,52.6,48.4,91,83,66,29.96,29.80,20,8,20,0.10
2013-7-29,70.0,61.3,56.2,58.6,56.0,53.5,93,83,65,30.16,29.94,13,6,13,0.04
2013-7-30,78.1,65.3,50.6,62.1,57.1,49.3,98,77,49,30.22,30.10,6,1,10,0.00
2013-7-31,67.2,65.2,62.0,65.5,63.4,59.2,97,94,90,30.11,29.87,12,2,12,0.47
2013-8-1,76.4,67.3,60.9,65.5,61.4,55.8,97,83,53,29.89,29.84,16,5,16,0.02
2013-8-2,73.8,65.5,55.8,64.5,59.5,53.5,94,82,65,29.90,29.81,20,6,20,0.00
2013-8-3,76.0,66.7,55.8,63.5,57.7,53.8,98,75,51,30.04,29.87,18,5,18,0.00
2013-8-4,71.7,62.1,54.0,58.3,54.5,50.8,92,77,55,30.16,30.04,16,4,16,0.00
2013-8-5,70.2,62.3,53.6,60.2,54.6,50.6,93,77,55,30.10,29.95,14,3,14,0.00
2013-8-6,76.8,68.5,63.5,69.4,63.7,56.8,94,85,72,29.95,29.86,21,6,21,0.09
2013-8-7,82.9,72.7,62.6,72.3,67.4,61.1,97,84,65,29.88,29.77,24,6,24,0.55
2013-8-8,75.8,68.6,61.0,69.1,60.8,56.2,93,77,53,29.99,29.87,12,5,12,0.00
2013-8-9,79.9,68.0,54.5,62.7,58.6,53.1,98,74,47,29.98,29.91,13,3,13,0.00
2013-8-10,76.2,66.5,55.8,60.9,57.5,53.3,97,75,49,30.12,29.98,15,3,15,0.00
2013-8-11,76.8,68.0,60.1,64.8,59.7,56.8,93,76,55,30.10,30.01,12,3,12,0.00
2013-8-12,70.4,65.3,59.4,67.5,63.5,57.8,97,94,84,30.04,29.82,12,3,14,0.09
2013-8-13,67.2,60.6,52.8,64.6,51.7,45.1,97,74,51,30.04,29.83,21,10,21,0.01
2013-8-14,71.0,58.3,47.6,54.4,49.9,44.9,93,75,49,30.16,30.04,17,5,17,0.00
2013-8-15,73.3,61.0,48.2,57.5,52.5,46.6,96,76,49,30.16,30.07,14,4,14,0.00
2013-8-16,79.4,64.5,50.3,59.7,54.8,48.9,97,74,42,30.19,30.09,7,1,9,0.00
2013-8-17,80.5,65.4,50.3,61.9,55.7,49.2,98,75,39,30.25,30.17,13,1,13,0.00
2013-8-18,81.2,66.8,51.8,64.2,58.0,50.7,98,76,44,30.22,30.08,8,2,8,0.00
2013-8-19,81.9,68.2,54.5,65.9,58.8,53.4,98,75,42,30.10,30.00,12,3,12,0.00
2013-8-20,84.9,71.3,57.9,68.4,63.0,56.8,97,78,50,30.11,30.03,14,4,14,0.00
2013-8-21,86.3,75.2,65.0,71.6,67.5,62.9,95,78,56,30.09,29.94,20,6,20,0.00
2013-8-22,81.5,74.8,68.1,69.3,67.1,61.6,91,78,61,30.02,29.88,22,6,22,0.00
2013-8-23,80.8,67.4,53.4,62.2,57.8,51.9,97,74,44,30.20,30.02,13,3,13,0.00
2013-8-24,83.0,66.1,51.1,62.9,56.5,50.0,98,75,40,30.31,30.19,9,2,9,0.00
2013-8-25,86.8,73.4,59.4,68.0,62.7,57.5,95,71,50,30.27,30.10,17,7,17,0.01
2013-8-26,85.7,76.7,69.2,73.6,67.6,62.4,86,74,63,30.11,29.93,17,8,17,0.00
2013-8-27,83.8,75.0,69.4,76.0,71.9,68.0,97,90,75,29.96,29.78,30,3,30,1.04
2013-8-28,81.8,74.7,66.7,74.3,71.4,64.9,98,90,73,29.99,29.75,13,4,13,0.01
2013-8-29,87.0,73.3,62.8,72.8,67.2,62.1,98,83,53,30.06,29.97,7,1,7,0.00
2013-8-30,86.3,76.8,67.5,73.3,69.6,64.5,96,80,59,29.97,29.69,21,7,21,0.00
2013-8-31,76.9,72.1,64.8,72.3,67.1,63.3,95,85,69,29.83,29.72,12,4,12,0.00
2013-9-1,79.6,68.7,60.8,72.0,66.1,59.9,98,92,76,29.83,29.69,12,1,12,0.03
2013-9-2,72.0,66.2,57.0,69.6,61.0,53.7,97,84,67,29.90,29.70,17,8,17,0.01
2013-9-3,74.1,63.4,56.3,57.9,54.5,52.3,90,74,50,30.00,29.89,17,7,17,0.00
2013-9-4,79.8,67.3,55.3,65.1,59.5,53.2,95,78,56,30.06,29.97,18,7,18,0.00
2013-9-5,69.8,59.4,47.5,61.6,50.5,45.1,94,75,46,30.25,30.06,15,5,15,0.00
2013-9-6,75.2,60.2,45.4,55.8,50.6,44.1,97,74,44,30.28,30.05,12,4,12,0.00
2013-9-7,77.3,69.2,60.3,70.1,61.6,50.2,90,77,61,30.05,29.86,14,5,14,0.04
2013-9-8,72.3,66.5,52.7,67.7,58.2,49.3,92,76,53,30.08,29.90,17,5,17,0.00
2013-9-9,77.8,64.6,49.7,70.6,60.6,48.0,96,87,76,30.05,29.85,13,3,14,0.01
2013-9-10,93.5,82.4,71.7,73.1,69.8,65.5,90,68,43,29.95,29.83,20,9,21,0.00
2013-9-11,89.7,78.4,69.7,73.6,69.1,65.2,91,74,55,29.97,29.87,18,5,18,0.35
2013-9-12,75.9,66.8,56.9,65.7,59.7,46.1,97,80,50,29.94,29.82,28,6,28,0.19
2013-9-13,57.6,52.6,40.6,47.0,44.3,37.8,94,74,50,30.14,29.94,21,9,21,0.00
2013-9-14,68.6,51.6,36.7,47.9,42.3,35.6,98,74,39,30.20,30.08,12,3,12,0.00
2013-9-15,62.5,55.1,48.4,54.4,49.7,45.3,96,83,61,30.12,30.05,12,3,12,0.11
2013-9-16,60.9,54.5,42.7,54.2,48.6,39.6,96,82,57,30.39,30.12,18,7,18,0.00
2013-9-17,68.2,50.4,34.1,54.9,43.8,33.1,98,80,53,30.42,30.23,12,2,12,0.00
2013-9-18,75.8,60.2,41.7,59.7,51.8,40.4,97,77,48,30.23,30.02,15,4,15,0.00
2013-9-19,79.8,69.3,60.5,69.4,63.7,57.1,93,83,68,30.03,29.86,15,6,15,0.00
2013-9-20,77.8,71.4,66.9,71.5,67.9,65.6,96,89,76,29.86,29.69,20,8,20,0.06
2013-9-21,67.7,61.0,53.6,65.6,54.7,43.7,96,81,53,29.86,29.64,28,8,28,0.04
2013-9-22,55.4,50.4,41.6,45.1,42.9,40.0,94,76,61,30.10,29.86,17,6,17,0.00
2013-9-23,59.6,47.7,35.5,49.4,42.4,34.2,98,83,60,30.21,30.09,8,1,8,0.00
2013-9-24,69.1,51.5,35.8,54.2,44.6,34.8,98,80,50,30.17,30.00,9,1,9,0.00
2013-9-25,72.5,53.4,37.9,56.6,46.8,36.8,98,82,44,30.02,29.95,12,1,12,0.00
2013-9-26,76.6,56.6,40.4,58.2,48.8,39.2,98,79,39,30.14,30.01,9,1,9,0.00
2013-9-27,77.2,57.7,42.1,57.2,49.9,41.1,98,79,45,30.23,30.14,10,1,10,0.00
2013-9-28,77.0,63.3,46.6,62.1,54.8,45.2,98,77,45,30.18,29.99,16,5,16,0.01
2013-9-29,64.9,61.1,58.2,60.7,57.5,54.9,96,88,73,30.00,29.91,14,4,14,0.14
2013-9-30,71.4,61.2,51.3,57.7,54.9,49.6,98,82,54,30.01,29.91,12,2,12,0.00
2013-10-1,74.7,62.9,50.7,64.2,58.4,49.2,97,86,66,29.98,29.89,25,8,25,0.00
2013-10-2,78.3,64.9,49.4,61.1,51.6,37.5,97,69,24,30.07,29.91,14,4,14,0.00
2013-10-3,79.8,65.7,48.0,67.8,59.6,46.1,95,82,65,30.05,29.89,18,4,18,0.00
2013-10-4,78.7,70.2,64.8,69.2,65.9,62.7,96,87,70,30.00,29.89,13,4,13,0.12
2013-10-5,72.6,67.9,64.8,69.2,66.0,63.9,98,94,87,30.01,29.82,12,3,12,0.37
2013-10-6,70.3,65.1,53.9,67.6,62.7,52.5,97,92,82,29.82,29.61,20,7,20,0.61
2013-10-7,59.7,51.7,45.8,53.2,47.8,43.0,96,87,66,30.10,29.65,21,7,21,0.10
2013-10-8,68.0,54.0,39.2,51.1,45.1,38.2,98,75,47,30.28,30.10,13,4,13,0.00
2013-10-9,71.0,58.5,44.0,55.6,48.4,42.4,98,72,45,30.32,30.21,13,3,13,0.00
2013-10-10,71.5,58.4,42.4,56.4,47.4,41.1,98,70,38,30.23,30.12,11,2,11,0.00
2013-10-11,72.9,54.2,37.8,54.1,44.2,36.8,98,74,34,30.16,30.07,8,1,8,0.00
2013-10-12,76.2,61.3,44.5,63.9,54.1,43.4,98,80,47,30.09,30.01,15,4,15,0.00
2013-10-13,66.1,58.1,43.6,58.8,48.1,39.4,93,72,39,30.34,30.06,16,5,16,0.00
2013-10-14,62.6,48.6,35.8,46.7,41.2,34.8,97,78,48,30.42,30.28,12,2,12,0.00
2013-10-15,64.6,51.7,35.8,60.2,48.7,34.8,98,90,74,30.29,29.80,18,5,18,0.13
2013-10-16,61.9,55.1,51.0,60.5,51.0,46.1,95,86,73,29.88,29.77,20,9,20,0.01
2013-10-17,52.3,50.0,45.5,50.9,48.5,43.8,97,95,90,29.88,29.73,20,5,20,0.27
2013-10-18,62.7,50.9,42.9,46.3,43.1,40.0,97,77,45,29.90,29.81,22,8,22,0.01
2013-10-19,51.4,45.3,40.7,44.5,41.7,37.9,95,87,68,29.87,29.71,20,7,20,0.17
2013-10-20,56.6,48.2,41.4,44.5,41.0,38.8,93,77,53,29.90,29.79,22,7,22,0.02
2013-10-21,55.9,50.6,41.6,48.9,43.8,36.2,91,78,65,29.83,29.78,25,11,25,0.05
2013-10-22,47.9,41.3,34.6,36.9,32.0,28.5,81,70,54,29.90,29.82,21,8,21,0.00
2013-10-23,47.2,39.6,32.5,35.2,32.3,26.7,93,77,48,29.93,29.82,18,6,18,0.00
2013-10-24,45.9,37.1,30.3,35.6,31.7,28.8,95,82,60,30.17,29.92,22,7,22,0.00
2013-10-25,46.9,38.4,31.1,36.7,31.2,29.1,95,77,55,30.33,30.06,23,8,23,0.00
2013-10-26,51.7,43.7,39.8,40.5,34.1,29.0,93,70,53,30.06,29.73,31,13,31,0.14
2013-10-27,51.9,43.4,40.3,37.9,34.8,31.1,82,73,53,30.05,29.91,17,5,17,0.00
2013-10-28,47.7,40.8,35.5,39.1,33.9,30.7,91,76,67,30.43,30.04,15,5,15,0.00
2013-10-29,47.2,41.3,38.1,37.0,33.4,30.4,81,73,64,30.46,30.24,10,4,10,0.00
2013-10-30,64.6,49.4,33.9,50.6,42.1,31.9,97,78,55,30.25,29.94,14,4,14,0.03
2013-10-31,61.5,59.2,52.9,60.1,57.7,50.1,97,95,90,29.95,29.09,23,12,23,1.10
2013-11-1,61.3,49.6,45.4,59.5,44.9,40.7,94,84,73,29.64,29.05,37,13,37,0.10
2013-11-2,45.7,42.2,33.3,44.9,40.3,31.5,97,93,86,30.12,29.63,20,7,20,0.16
2013-11-3,43.9,35.6,27.4,37.6,31.7,26.4,97,87,68,30.46,30.11,10,2,10,0.01
2013-11-4,49.2,41.1,31.6,36.8,31.8,26.7,89,71,44,30.49,30.29,23,9,23,0.00
2013-11-5,55.4,51.4,45.3,47.9,44.1,36.8,85,76,71,30.34,30.14,20,8,20,0.00
2013-11-6,56.2,52.4,41.3,53.2,47.5,38.9,94,84,65,30.14,29.73,29,14,29,0.33
2013-11-7,43.1,39.1,34.3,39.2,32.2,28.3,93,77,56,30.13,29.97,21,10,21,0.03
2013-11-8,44.7,36.2,29.9,32.7,28.2,25.8,90,74,49,30.28,30.11,16,5,16,0.01
2013-11-9,53.9,46.6,36.1,42.3,36.4,29.9,79,68,58,30.18,29.78,31,14,31,0.00
2013-11-10,47.2,41.6,34.6,36.7,32.5,28.5,82,70,57,30.26,29.89,29,12,29,0.00
2013-11-11,42.9,36.2,27.4,39.0,31.0,21.6,94,82,71,30.33,30.03,26,9,26,0.15
2013-11-12,33.9,27.3,22.6,23.0,19.3,16.7,86,72,56,30.56,30.32,23,9,23,0.01
2013-11-13,40.6,30.7,19.6,26.5,19.6,13.9,89,66,38,30.56,30.14,32,12,32,0.01
2013-11-14,52.6,41.7,32.8,31.1,23.8,19.4,59,49,39,30.15,29.93,27,14,27,0.00
2013-11-15,51.9,45.3,38.8,31.5,28.2,25.0,63,52,40,30.05,29.96,19,9,19,0.00
2013-11-16,57.0,47.8,38.9,53.4,42.3,30.5,92,81,63,30.08,29.76,30,11,30,0.00
2013-11-17,63.1,58.6,46.0,59.5,55.6,41.1,95,90,78,29.77,29.15,50,17,50,0.84
2013-11-18,46.5,40.0,35.0,41.6,31.7,25.0,83,72,66,30.12,29.40,43,19,43,0.00
2013-11-19,40.7,34.0,27.4,26.5,24.1,22.1,83,67,51,30.42,30.12,20,6,20,0.00
2013-11-20,45.4,34.8,23.9,34.5,27.9,21.7,95,77,49,30.46,30.25,20,5,20,0.00
2013-11-21,49.4,45.1,41.0,43.5,38.0,28.9,95,77,62,30.29,30.17,20,7,20,0.08
2013-11-22,44.7,38.3,26.9,43.9,35.7,23.8,97,90,76,30.36,30.13,22,8,22,0.08
2013-11-23,28.1,24.0,17.2,25.1,16.8,8.3,90,74,52,30.53,30.27,32,14,32,0.00
2013-11-24,24.7,19.3,14.9,15.7,11.7,9.2,84,73,53,30.62,30.42,21,10,21,0.00
2013-11-25,32.8,26.7,20.7,26.6,15.6,7.8,88,64,43,30.41,30.07,26,15,26,0.00
2013-11-26,33.2,31.2,28.5,29.3,27.9,24.8,92,87,83,30.10,29.95,17,8,17,0.00
2013-11-27,28.5,22.6,17.7,25.2,15.0,10.2,90,73,57,30.21,29.95,27,11,27,0.00
2013-11-28,27.9,22.0,14.6,21.7,17.5,11.2,89,83,73,30.46,30.20,12,3,12,0.00
2013-11-29,33.4,25.0,18.3,23.9,20.1,16.1,93,82,58,30.70,30.46,8,2,8,0.00
2013-11-30,44.8,36.0,26.0,30.7,26.9,21.8,85,70,55,30.58,30.10,18,9,18,0.00
2013-12-1,41.8,38.7,35.7,34.3,32.0,30.1,92,77,65,30.10,30.01,13,6,13,0.00
2013-12-2,38.6,32.5,26.0,30.1,25.7,21.8,91,77,58,29.98,29.91,5,1,8,0.01
2013-12-3,38.1,32.7,22.4,36.5,29.8,20.0,94,89,78,29.94,29.85,12,5,12,0.05
2013-12-4,56.2,45.8,37.8,53.2,43.8,36.5,96,93,87,29.90,29.58,22,7,22,0.10
2013-12-5,58.9,42.1,29.9,55.2,35.3,22.0,91,77,65,30.13,29.57,35,14,35,0.01
2013-12-6,29.9,23.7,17.7,22.2,16.4,11.0,80,73,68,30.50,30.12,16,7,17,0.00
2013-12-7,23.6,18.9,12.1,14.2,10.1,8.0,86,69,57,30.64,30.50,20,7,20,0.00
2013-12-8,27.2,18.8,9.8,24.6,13.9,6.9,91,82,65,30.63,30.01,14,5,18,0.00
2013-12-9,29.9,26.8,19.1,27.8,22.6,12.5,94,84,73,30.09,29.88,30,13,30,0.00
2013-12-10,21.6,17.3,10.7,17.5,10.7,3.8,88,75,49,30.20,29.95,31,10,31,0.00
2013-12-11,19.1,16.7,4.4,15.4,12.4,0.2,86,83,78,30.47,30.19,14,4,14,0.00
2013-12-12,21.2,14.9,4.7,16.2,8.8,0.9,86,77,59,30.46,30.18,23,12,23,0.00
2013-12-13,26.5,23.8,20.9,21.5,18.5,16.0,87,80,71,30.32,30.16,20,7,20,0.00
2013-12-14,21.7,19.6,17.6,19.7,16.3,14.2,92,87,79,30.32,29.91,20,10,20,0.00
2013-12-15,23.7,19.2,12.7,21.3,16.5,5.9,93,89,74,30.04,29.83,21,7,21,0.00
2013-12-16,23.6,14.2,4.4,12.6,7.7,1.3,89,76,54,30.22,30.03,13,4,13,0.08
2013-12-17,28.9,22.8,14.7,24.8,19.7,12.0,91,88,81,30.05,29.88,20,7,20,0.00
2013-12-18,29.5,26.8,23.5,25.3,21.5,15.1,93,81,65,30.11,29.87,20,9,23,0.00
2013-12-19,39.2,33.6,28.1,33.9,28.0,18.1,94,80,63,30.01,29.85,20,6,20,0.09
2013-12-20,34.3,33.5,32.8,33.3,32.4,31.3,97,96,94,29.93,29.74,10,4,10,0.21
2013-12-21,33.3,32.8,32.4,32.5,31.9,31.3,97,96,95,29.88,29.70,12,3,12,0.34
2013-12-22,33.4,31.7,27.5,32.4,30.6,26.4,96,96,95,29.98,29.59,0,0,0,0.31
2013-12-23,27.5,24.8,19.7,26.4,22.9,16.9,96,92,88,30.31,29.98,0,0,0,0.01
2013-12-24,19.7,11.8,4.4,16.9,8.8,1.5,92,87,80,30.58,30.31,0,0,0,0.00
2013-12-25,23.9,18.6,8.6,22.2,16.0,5.9,93,89,86,30.55,30.13,0,0,0,0.00
2013-12-26,26.2,24.4,22.4,24.7,21.8,18.2,94,90,81,30.29,30.05,0,0,0,0.00
2013-12-27,38.2,31.3,25.3,33.1,28.8,22.9,95,91,80,30.34,30.03,22,2,22,0.02
2013-12-28,49.4,40.8,33.5,35.9,33.3,30.1,88,75,58,30.11,29.86,26,10,26,0.05
2013-12-29,40.6,33.7,18.6,33.3,27.2,12.3,93,78,67,30.02,29.69,22,9,22,0.00
2013-12-30,19.2,17.2,14.4,13.7,9.5,6.0,82,71,64,30.30,30.02,18,6,18,0.00
2013-12-31,18.3,15.8,12.3,14.8,11.0,6.1,89,81,67,30.36,30.07,22,10,22,0.00
2014-1-1,14.9,12.5,10.0,11.9,6.8,2.3,89,78,64,30.45,30.30,14,6,14,0.00
2014-1-2,15.0,11.2,2.4,11.3,7.5,-2.8,88,85,76,30.33,30.16,28,11,28,0.00